XE3JAR Weather Reports


time (UTC)temp
C
wind
direction
speed
KPH
gust
KPH
rain 1hr
cm
rain 24hr
cm
rain mn
cm
humidity
%
barometer
mb
20260905151312 33 203 0.0 0.0 0.00 1.27 0.00 78 1014.6
20260905150328 33 248 0.0 0.0 0.00 1.27 0.00 77 1014.2
20260905145529 32 270 0.0 0.0 0.00 1.27 0.00 80 1014.2
20260905144016 32 135 0.0 0.0 0.00 1.27 0.00 83 1014.2
20260905143530 31 225 0.0 0.0 0.00 1.27 0.00 87 1014.2
20260905142012 28 270 0.0 0.0 0.00 1.27 0.00 93 1014.2
20260905141332 27 68 0.0 0.0 0.00 1.27 0.00 94 1014.2
20260905140712 27 315 0.0 0.0 0.00 1.27 0.00 95 1014.2
20260905135522 27 248 0.0 0.0 0.00 1.27 0.00 98 1014.2
20260905135050 27 225 0.0 0.0 0.00 1.27 0.00 99 1014.2
20260905134059 26 293 0.0 0.0 0.00 1.27 0.00 99 1014.2
20260905133553 26 203 0.0 0.0 0.00 1.27 0.00 99 1013.9
20260905133045 26 180 0.0 0.0 0.00 1.27 0.00 99 1013.9
20260905132628 26 248 0.0 0.0 0.00 1.27 0.00 99 1013.9
20260905131142 25 248 0.0 0.0 0.00 1.27 0.00 99 1014.2
20260905125915 25 225 0.0 0.0 0.00 1.27 0.00 99 1014.6
20260905125418 25 225 0.0 0.0 0.00 1.27 0.00 99 1014.6
20260905124933 25 225 0.0 0.0 0.00 1.27 0.00 99 1014.6
20260905123358 23 203 0.0 0.0 0.00 1.27 0.00 99 1014.6
20260905122855 23 225 0.0 0.0 0.00 1.27 0.00 99 1014.6
20260905121608 23 225 0.0 0.0 0.00 1.27 0.00 99 1014.2
20260905120949 23 225 0.0 0.0 0.00 1.27 0.00 99 1013.9
20260905120029 23 270 0.0 17.7 0.00 1.27 0.00 99 1013.9
20260905113650 23 248 0.0 0.0 0.00 1.27 0.00 99 1013.9
20260905113345 23 225 0.0 0.0 0.00 1.27 0.00 99 1013.9
20260905111634 23 225 0.0 0.0 0.00 1.27 0.00 99 1013.6
20260905111109 23 180 0.0 0.0 0.00 1.27 0.00 99 1013.6
20260905105604 23 180 0.0 11.3 0.00 1.27 0.00 99 1013.6
20260905104112 23 203 11.3 17.7 0.00 1.27 0.00 99 1013.6
20260905103609 25 270 6.4 11.3 0.00 1.27 0.00 99 1013.6
20260905103104 25 180 11.3 11.3 0.00 1.27 0.00 99 1013.6
20260905102041 25 293 0.0 0.0 0.00 1.27 0.00 99 1013.6
20260905100730 25 270 0.0 0.0 0.00 1.27 0.00 99 1013.2
20260905095651 25 203 0.0 0.0 0.00 1.27 0.00 99 1013.2
20260905073356 26 68 35.4 69.2 0.00 1.27 0.00 99 1012.9
20260905072333 26 68 35.4 69.2 0.00 1.27 0.00 99 1012.9
20260905070914 26 68 35.4 69.2 0.00 1.27 0.00 99 1012.9
20260905064345 26 113 40.2 69.2 0.00 1.17 0.00 99 1011.8
20260905055848 27 225 0.0 0.0 0.00 0.00 0.00 93 1012.5
20260905055340 27 248 0.0 0.0 0.00 0.00 0.00 93 1012.9
20260905054834 27 248 0.0 0.0 0.00 0.00 0.00 93 1012.9
20260905054330 27 225 0.0 0.0 0.00 0.00 0.00 93 1012.9
20260905053832 27 225 0.0 0.0 0.00 0.00 0.00 93 1012.9
20260905043913 27 225 0.0 0.0 0.00 0.00 0.00 93 1012.2
20260905043406 27 248 0.0 0.0 0.00 0.00 0.00 93 1012.2
20260905041924 27 203 0.0 0.0 0.00 0.00 0.00 93 1012.2
20260905035526 27 293 0.0 0.0 0.00 0.00 0.00 93 1011.8
20260905031814 28 203 0.0 17.7 0.00 0.00 0.00 96 1011.8
20260905024837 30 225 0.0 0.0 0.00 0.00 0.00 94 1011.5
20260905023903 30 270 0.0 0.0 0.00 0.00 0.00 93 1010.8
20260905023357 30 248 0.0 0.0 0.00 0.00 0.00 93 1010.8
20260905022857 30 248 0.0 0.0 0.00 0.00 0.00 93 1010.8
20260905021353 31 203 0.0 0.0 0.00 0.00 0.00 92 1010.8
20260905020845 31 248 0.0 0.0 0.00 0.00 0.00 92 1010.8
20260905020338 31 203 0.0 0.0 0.00 0.00 0.00 91 1010.5
20260905015835 31 248 0.0 0.0 0.00 0.00 0.00 91 1010.5
20260905014830 31 203 0.0 0.0 0.00 0.00 0.00 90 1010.5
20260905014208 31 248 11.3 17.7 0.00 0.00 0.00 90 1010.5
20260905005035 31 0 20.9 29.0 0.00 0.00 0.00 87 1009.1
20260905004512 32 23 17.7 20.9 0.00 0.00 0.00 86 1009.1
20260905004027 32 315 17.7 17.7 0.00 0.00 0.00 86 1009.1
20260905002947 32 68 17.7 20.9 0.00 0.00 0.00 85 1009.1
20260904235833 32 45 35.4 35.4 0.00 0.00 0.00 83 1009.1
20260904233427 32 23 17.7 35.4 0.00 0.00 0.00 81 1008.8
20260904230639 32 0 20.9 40.2 0.00 0.00 0.00 78 1008.1
20260904221025 36 23 20.9 46.7 0.00 0.00 0.00 74 1008.1
20260904220527 36 338 17.7 40.2 0.00 0.00 0.00 73 1008.1
20260904215510 36 315 57.9 57.9 0.00 0.00 0.00 73 1008.1
20260904212802 37 293 17.7 20.9 0.00 0.00 0.00 65 1008.1
20260904211727 37 68 20.9 20.9 0.00 0.00 0.00 63 1008.1
20260904205029 41 0 20.9 29.0 0.00 0.00 0.00 58 1008.5
20260904204038 41 225 11.3 35.4 0.00 0.00 0.00 58 1008.5
20260904195228 38 23 29.0 46.7 0.00 0.00 0.00 60 1009.5
20260904194456 42 68 20.9 35.4 0.00 0.00 0.00 55 1009.5
20260904193445 42 23 17.7 20.9 0.00 0.00 0.00 53 1009.8
20260904191937 42 158 17.7 17.7 0.00 0.00 0.00 55 1009.8
20260904190942 42 315 20.9 35.4 0.00 0.00 0.00 55 1010.2
20260904185408 42 23 29.0 35.4 0.00 0.00 0.00 57 1010.2
20260904181850 42 90 11.3 11.3 0.00 0.00 0.00 58 1010.8
20260904180843 42 0 17.7 29.0 0.00 0.00 0.00 59 1010.8
20260904180335 41 45 11.3 29.0 0.00 0.00 0.00 60 1011.2
20260904175321 41 68 11.3 20.9 0.00 0.00 0.00 60 1011.2
20260904174814 41 135 17.7 40.2 0.00 0.00 0.00 60 1011.2
20260904173111 40 315 35.4 40.2 0.00 0.00 0.00 62 1011.5
20260904172708 41 45 11.3 35.4 0.00 0.00 0.00 60 1011.5
20260904163918 38 45 17.7 35.4 0.00 0.00 0.00 65 1011.8
20260904161312 38 180 11.3 11.3 0.00 0.00 0.00 65 1012.2
20260904155758 38 113 11.3 17.7 0.00 0.00 0.00 66 1011.8
20260904155253 37 135 29.0 29.0 0.00 0.00 0.00 67 1011.8
20260904154309 37 0 17.7 29.0 0.00 0.00 0.00 68 1011.8
20260904153804 37 180 11.3 11.3 0.00 0.00 0.00 68 1011.8
20260904152739 37 68 0.0 0.0 0.00 0.00 0.00 70 1011.8